PROBA-V (39159 NORAD) Tracking and Keplerian Element Data

This shows tracking and keplerian element data for the satellite.

Feedback or suggestion? Click here.




ElementValue
Catalog39159
NamePROBA-V
Epoch Orbit26985
Epoch Day198.74502283
Epoch Year2018
RAAN269.5778
Inclination98.557
Eccentricity0.0003613
Argument of Perigee312.6676
Mean Anonmoly47.4193
Mean Motion14.22962142
Decay Rate-4E-07
L11 39159U 13021A 18198.74502283 -.00000040 00000-0 99529-6 0 9997
L22 39159 98.5570 269.5778 0003613 312.6676 47.4193 14.22962142269852

Live tracking and technical data element details for PROBA-V (NORAD 39159). PROBA-V can be tracked NOW for your location showing map with azimuth and elevation plus other details from your city location.

Track the satellite on the map from your city or location and see movement details for azimuth, elevation, latitude, longitude, range, height, and movement on the map or in text.







IsCatalogInMostPopularTable: catalog: 39159, numindb: 52
Update: records affected: 1



GetName: 39159 PROBA-V

Hit Count: updated at: Thu, 19 Jul 2018 03:20:01 GMT